Regional Weather Roundup
Issued by NWS

Home | Current Version | Previous Version | Text Only | Print | Product List | Glossary Off
Versions: 1 2 3 4 5 6 7 8 9 10 11 12 13 14 15 16 17 18 19 20 21 22 23 24 25 26 27 28 29 30 31 32 33 34 35 36 37 38 39 40 41 42 43 44 45 46 47 48 49 50

145
ASUS45 KCYS 041610
RWRWY

WYOMING REGIONAL WEATHER ROUNDUP
NATIONAL WEATHER SERVICE CHEYENNE WY
1000 AM MDT WED MAY 04 2016

NOTE:  "FAIR" INDICATES FEW OR NO CLOUDS BELOW 12,000 FEET
WITH NO SIGNIFICANT WEATHER AND/OR OBSTRUCTIONS TO VISIBILITY.

WYZ001-041700-
YELLOWSTONE NATIONAL PARK

CITY           SKY/WX    TMP DP  RH WIND       PRES   REMARKS
LK YELLOWSTONE   N/A     44  24  45 CALM      30.32F
W YELLOWSTONE  NOT AVBL

$$
WYZ002>013-054>058-071-098>099-041700-
NORTHERN WYOMING

CITY           SKY/WX    TMP DP  RH WIND       PRES   REMARKS
JACKSON        SUNNY     50  28  43 CALM      30.28F
CODY           FAIR      68  30  24 SW15      30.13F
GREYBULL       FAIR      65  36  34 VRB5      30.12F
WORLAND        FAIR      62  39  42 SW3       30.13F
SHERIDAN       FAIR      66  45  46 CALM      30.09F
BUFFALO        FAIR      68  36  30 SE6       30.15F
GILLETTE       FAIR      67  42  40 S17       30.13F
HULETT         FAIR      68  43  40 NW5       30.16F
NEWCASTLE      FAIR      66  36  32 SE9       30.19S

$$
WYZ014>020-022>026-101>103-041700-
CENTRAL WYOMING

CITY           SKY/WX    TMP DP  RH WIND       PRES   REMARKS
BIG PINEY      FAIR      54  27  35 S3        30.31F
PINEDALE       FAIR      57  28  33 SE3       30.30F
DUBOIS         FAIR      55  28  35 CALM      30.27F
LANDER         FAIR      61  33  35 E5        30.20F
RIVERTON       FAIR      58  38  47 CALM      30.22F
CASPER         FAIR      63  34  33 SW14      30.21F
DOUGLAS        FAIR      61  41  47 S5        30.21F

$$
WYZ021-027>030-104>119-041700-
SOUTHERN WYOMING

CITY           SKY/WX    TMP DP  RH WIND       PRES   REMARKS
EVANSTON       FAIR      59  25  27 SE5       30.27F
KEMMERER         N/A     59  23  25 CALM      30.30F
FORT BRIDGER   FAIR      57  30  35 CALM      30.32F
ROCK SPRINGS   FAIR      56  34  43 VRB3      30.29F
DIXON          FAIR      57  31  37 CALM      30.32F
RAWLINS        FAIR      56  32  40 VRB3      30.31F
SARATOGA       FAIR      59  28  31 S8        30.32F
LARAMIE        FAIR      53  31  42 CALM      30.31F
CHEYENNE       FAIR      63  31  30 W6        30.27F
TORRINGTON     FAIR      60  41  49 CALM      30.20F
PINE BLUFFS    FAIR      61  41  48 CALM      30.25F

$$




USA.gov is the U.S. government's official web portal to all federal, state and local government web resources and services.